TimeEST,TemperatureF,Dew PointF,Humidity,Sea Level PressureIn,VisibilityMPH,Wind Direction,Wind SpeedMPH,Gust SpeedMPH,PrecipitationIn,Events,Conditions,WindDirDegrees,DateUTC
12:15 AM,50.0,44.6,82,30.29,7.0,NE,8.1,-,N/A,,Clear,50,2012-11-14 05:15:00
12:35 AM,50.0,44.6,82,30.30,5.0,ENE,5.8,-,N/A,,Haze,60,2012-11-14 05:35:00
12:55 AM,51.8,44.6,76,30.30,4.0,NE,4.6,-,N/A,,Haze,50,2012-11-14 05:55:00
1:15 AM,51.8,44.6,76,30.29,3.0,ENE,8.1,-,N/A,,Haze,60,2012-11-14 06:15:00
1:35 AM,51.8,44.6,76,30.29,4.0,NE,6.9,-,N/A,,Haze,50,2012-11-14 06:35:00
1:55 AM,51.8,44.6,76,30.29,3.0,ENE,8.1,-,N/A,,Haze,60,2012-11-14 06:55:00
2:15 AM,51.8,44.6,76,30.28,3.0,ENE,9.2,-,N/A,,Haze,70,2012-11-14 07:15:00
2:35 AM,51.8,44.6,76,30.28,3.0,ENE,8.1,-,N/A,,Haze,60,2012-11-14 07:35:00
2:55 AM,51.8,44.6,76,30.29,2.5,ENE,9.2,-,N/A,,Haze,70,2012-11-14 07:55:00
3:15 AM,51.8,44.6,76,30.29,2.5,ENE,6.9,-,N/A,,Haze,60,2012-11-14 08:15:00
3:35 AM,51.8,44.6,76,30.29,2.5,ENE,6.9,-,N/A,,Haze,70,2012-11-14 08:35:00
3:55 AM,51.8,44.6,76,30.29,3.0,ENE,9.2,16.1,N/A,,Haze,70,2012-11-14 08:55:00
4:15 AM,51.8,44.6,76,30.29,2.5,ENE,8.1,-,N/A,,Haze,70,2012-11-14 09:15:00
4:35 AM,51.8,44.6,76,30.30,3.0,ENE,10.4,-,N/A,,Haze,70,2012-11-14 09:35:00
4:55 AM,51.8,44.6,76,30.29,2.5,ENE,10.4,-,N/A,,Haze,70,2012-11-14 09:55:00
5:15 AM,51.8,46.4,82,30.31,2.5,ENE,9.2,-,N/A,,Haze,70,2012-11-14 10:15:00
5:35 AM,51.8,46.4,82,30.31,2.5,ENE,9.2,17.3,N/A,,Haze,70,2012-11-14 10:35:00
5:55 AM,51.8,46.4,82,30.31,2.5,ENE,9.2,-,N/A,,Haze,70,2012-11-14 10:55:00
6:15 AM,51.8,46.4,82,30.31,3.0,NE,9.2,-,N/A,,Haze,50,2012-11-14 11:15:00
6:35 AM,51.8,46.4,82,30.32,2.5,ENE,9.2,-,N/A,,Haze,70,2012-11-14 11:35:00
6:55 AM,51.8,46.4,82,30.33,1.8,ENE,8.1,-,N/A,,Haze,70,2012-11-14 11:55:00
7:15 AM,51.8,46.4,82,30.34,1.8,ENE,8.1,-,N/A,,Haze,70,2012-11-14 12:15:00
7:35 AM,51.8,46.4,82,30.34,2.0,ENE,6.9,-,N/A,,Haze,60,2012-11-14 12:35:00
7:55 AM,51.8,46.4,82,30.35,10.0,ENE,6.9,-,N/A,,Overcast,70,2012-11-14 12:55:00
8:15 AM,51.8,46.4,82,30.36,2.5,ENE,10.4,-,N/A,,Haze,70,2012-11-14 13:15:00
8:35 AM,51.8,46.4,82,30.36,5.0,NE,11.5,-,N/A,,Haze,50,2012-11-14 13:35:00
8:55 AM,51.8,46.4,82,30.37,10.0,NE,9.2,-,N/A,,Overcast,50,2012-11-14 13:55:00
9:15 AM,51.8,44.6,76,30.38,10.0,ENE,5.8,-,N/A,,Overcast,60,2012-11-14 14:15:00
9:35 AM,53.6,44.6,72,30.36,10.0,NE,10.4,-,N/A,,Overcast,40,2012-11-14 14:35:00
9:55 AM,51.8,44.6,76,30.37,10.0,NE,6.9,-,N/A,,Overcast,50,2012-11-14 14:55:00
10:15 AM,51.8,42.8,71,30.38,10.0,NE,8.1,-,N/A,,Overcast,50,2012-11-14 15:15:00
10:35 AM,53.6,42.8,67,30.38,5.0,NE,8.1,-,N/A,,Haze,50,2012-11-14 15:35:00
10:55 AM,53.6,42.8,67,30.37,10.0,ENE,10.4,16.1,N/A,,Overcast,70,2012-11-14 15:55:00
11:15 AM,53.6,42.8,67,30.37,10.0,East,10.4,-,N/A,,Overcast,80,2012-11-14 16:15:00
11:35 AM,53.6,42.8,67,30.36,5.0,ENE,6.9,16.1,N/A,,Haze,60,2012-11-14 16:35:00
11:55 AM,53.6,42.8,67,30.34,5.0,ENE,8.1,-,N/A,,Haze,70,2012-11-14 16:55:00
12:15 PM,53.6,41.0,62,30.34,7.0,NE,9.2,-,N/A,,Overcast,40,2012-11-14 17:15:00
12:35 PM,53.6,41.0,62,30.34,10.0,ENE,9.2,-,N/A,,Overcast,70,2012-11-14 17:35:00
12:55 PM,53.6,41.0,62,30.32,10.0,ENE,8.1,-,N/A,,Overcast,60,2012-11-14 17:55:00
1:15 PM,53.6,41.0,62,30.32,10.0,ENE,8.1,-,N/A,,Overcast,70,2012-11-14 18:15:00
1:35 PM,53.6,42.8,67,30.32,10.0,ENE,5.8,-,N/A,,Overcast,60,2012-11-14 18:35:00
1:55 PM,53.6,42.8,67,30.31,10.0,ENE,10.4,16.1,N/A,,Overcast,70,2012-11-14 18:55:00
2:15 PM,53.6,42.8,67,30.30,10.0,ENE,10.4,-,N/A,,Overcast,60,2012-11-14 19:15:00
2:35 PM,53.6,42.8,67,30.29,10.0,East,9.2,-,N/A,,Overcast,90,2012-11-14 19:35:00
2:55 PM,53.6,41.0,62,30.29,10.0,ENE,9.2,-,N/A,,Overcast,60,2012-11-14 19:55:00
3:15 PM,53.6,42.8,67,30.29,10.0,ENE,6.9,-,N/A,,Overcast,60,2012-11-14 20:15:00
3:35 PM,53.6,42.8,67,30.29,10.0,East,8.1,-,N/A,,Overcast,90,2012-11-14 20:35:00
3:55 PM,53.6,42.8,67,30.29,10.0,NE,8.1,-,N/A,,Overcast,50,2012-11-14 20:55:00
4:15 PM,51.8,41.0,67,30.29,10.0,NE,5.8,-,N/A,,Overcast,50,2012-11-14 21:15:00
4:35 PM,51.8,42.8,71,30.29,10.0,ENE,8.1,-,N/A,,Overcast,60,2012-11-14 21:35:00
4:55 PM,51.8,42.8,71,30.29,10.0,ENE,4.6,-,N/A,,Overcast,70,2012-11-14 21:55:00
5:15 PM,51.8,42.8,71,30.29,7.0,NE,8.1,-,N/A,,Overcast,50,2012-11-14 22:15:00
5:35 PM,51.8,42.8,71,30.29,7.0,NE,6.9,-,N/A,,Overcast,50,2012-11-14 22:35:00
5:55 PM,51.8,42.8,71,30.29,10.0,ENE,5.8,-,N/A,,Overcast,60,2012-11-14 22:55:00
6:15 PM,51.8,41.0,67,30.30,10.0,ENE,5.8,-,N/A,,Overcast,60,2012-11-14 23:15:00
6:35 PM,51.8,41.0,67,30.30,10.0,ENE,4.6,-,N/A,,Overcast,60,2012-11-14 23:35:00
6:55 PM,51.8,41.0,67,30.30,10.0,East,8.1,-,N/A,,Overcast,80,2012-11-14 23:55:00
7:15 PM,51.8,41.0,67,30.30,10.0,ENE,5.8,-,N/A,,Overcast,70,2012-11-15 00:15:00
7:35 PM,51.8,41.0,67,30.31,10.0,NNE,4.6,-,N/A,,Overcast,20,2012-11-15 00:35:00
7:55 PM,50.0,42.8,76,30.31,7.0,NE,3.5,-,N/A,Rain,Rain,40,2012-11-15 00:55:00
8:15 PM,48.2,46.4,93,30.31,5.0,NNE,3.5,-,N/A,Rain,Heavy Rain,30,2012-11-15 01:15:00
8:35 PM,48.2,48.2,100,30.30,10.0,NE,4.6,-,N/A,,Overcast,50,2012-11-15 01:35:00
8:55 PM,48.2,48.2,100,30.30,10.0,NE,4.6,-,N/A,,Overcast,50,2012-11-15 01:55:00
9:15 PM,48.2,48.2,100,30.29,10.0,ENE,6.9,-,N/A,,Overcast,60,2012-11-15 02:15:00
9:35 PM,48.2,48.2,100,30.29,10.0,ENE,3.5,-,N/A,Rain,Rain,60,2012-11-15 02:35:00
9:55 PM,48.2,48.2,100,30.29,10.0,NE,3.5,-,N/A,Rain,Rain,40,2012-11-15 02:55:00
10:15 PM,48.2,46.4,93,30.28,10.0,NE,4.6,-,N/A,,Drizzle,40,2012-11-15 03:15:00
10:35 PM,46.4,46.4,100,30.28,10.0,NE,3.5,-,N/A,,Drizzle,40,2012-11-15 03:35:00
10:55 PM,46.4,46.4,100,30.27,7.0,ENE,6.9,-,N/A,Rain-Thunderstorm,Heavy Thunderstorms and Rain,60,2012-11-15 03:55:00
11:15 PM,46.4,46.4,100,30.28,5.0,NNE,4.6,-,N/A,Rain-Thunderstorm,Rain,30,2012-11-15 04:15:00
11:35 PM,46.4,46.4,100,30.28,7.0,NNW,4.6,-,N/A,Rain-Thunderstorm,Thunderstorms and Rain,330,2012-11-15 04:35:00
11:55 PM,46.4,46.4,100,30.29,3.0,NNW,4.6,-,N/A,Rain-Thunderstorm,Heavy Thunderstorms and Rain,330,2012-11-15 04:55:00